Temp
79 78 74 75 75 74 74 74 74 74 75 75 75 75 75 76 76 76 76 76 77 77 78 77 77 77 76 76 75 75 74 74 74 74 75 75 76 75 74 74 74 74 74
77 79 73 74 74 75 74 74 74 74 75 75 75 75 75 75 75 76 76 76 76 77 78 77 77 76 76 75 74 74 73 73 73 75 75 75 75 75 74 73 73 73 73
72 77 78 74 74 74 74 74 74 75 75 75 75 75 75 75 75 75 75 76 77 77 77 77 76 76 75 74 73 73 73 73 73 74 76 73 72 74 73 73 73 73 73
77 79 77 73 74 74 74 74 74 75 75 75 75 75 75 75 75 75 75 75 76 77 77 77 76 75 74 72 72 72 72 73 73 76 76 75 74 74 74 73 73 73 73
77 78 76 73 73 73 73 74 74 74 74 74 75 75 75 75 75 75 75 75 76 77 77 76 75 73 72 71 71 72 72 73 73 76 72 71 71 74 73 73 72 71 71
70 75 70 72 72 73 73 74 73 73 73 73 74 75 75 75 75 75 75 76 77 77 76 75 74 72 71 71 71 71 71 71 72 74 71 72 70 73 73 72 71 71 70
70 71 71 69 71 72 73 73 73 73 73 73 74 74 74 75 74 74 74 75 75 75 74 73 72 71 70 70 70 70 71 71 77 73 70 68 69 72 72 71 71 70 70
69 70 70 71 72 72 72 72 72 72 72 72 73 73 73 73 73 73 73 73 73 72 72 71 71 70 70 70 70 70 70 70 79 74 71 68 71 72 72 71 70 70 70
68 69 68 68 70 69 69 70 70 71 71 71 71 71 71 71 71 72 72 72 72 71 71 70 70 69 70 69 70 69 69 70 70 73 74 68 72 72 72 71 70 70 69
65 66 65 66 67 68 69 69 70 70 69 70 70 70 70 70 71 71 71 71 71 71 70 70 69 69 69 69 69 69 69 68 72 72 69 67 71 72 71 70 70 69 69
64 64 65 65 64 66 68 69 70 70 69 69 70 69 70 71 72 73 69 69 70 69 69 69 68 68 68 68 69 69 69 70 71 70 67 70 71 71 71 70 69 69 68
60 61 62 64 65 67 70 69 69 70 71 71 71 70 71 70 71 70 68 67 67 67 68 68 68 68 68 67 66 68 68 69 69 67 64 68 70 71 70 69 69 68 68
59 60 61 61 62 63 66 67 67 68 71 70 68 70 69 69 68 66 65 66 65 67 68 68 66 67 69 68 67 66 67 67 65 65 64 66 70 70 70 69 68 68 67
57 58 59 61 61 61 62 63 64 64 65 68 70 69 69 68 67 66 66 67 66 68 66 67 66 67 68 69 68 66 66 64 64 63 61 65 67 70 70 69 68 68 67
56 57 57 59 59 59 59 60 62 63 65 67 69 69 69 68 68 67 67 68 68 69 68 67 67 67 67 67 66 66 66 65 65 63 59 64 65 67 69 70 68 68 67
56 56 57 57 58 59 59 60 59 61 64 65 67 68 70 68 68 69 69 70 69 69 69 68 67 66 65 65 64 65 65 64 65 64 61 59 63 65 68 69 68 68 67
57 58 57 58 59 58 59 60 61 63 67 68 69 69 70 71 70 70 69 68 68 69 69 67 67 66 64 66 64 64 64 64 63 63 62 60 59 62 64 67 66 66 66
59 59 60 61 59 58 59 58 59 62 68 72 70 69 71 73 71 69 68 68 69 68 67 65 64 64 63 63 61 61 62 63 63 63 63 62 60 60 60 63 64 64 64
62 62 61 60 59 58 59 60 63 67 69 70 69 70 70 72 71 69 69 69 68 67 65 66 64 63 61 61 62 61 60 59 61 66 63 62 61 59 57 60 61 61 62
65 64 63 61 61 61 60 62 68 69 70 70 69 68 70 72 72 69 68 67 67 65 64 64 62 62 61 60 68 64 59 59 59 57 59 63 60 60 58 56 53 55 59
67 65 66 62 62 64 65 66 66 64 67 67 68 70 70 70 70 68 67 66 65 65 63 63 61 59 58 59 56 57 56 57 57 57 57 57 58 59 58 56 54 53 54
66 66 66 67 68 68 68 68 68 68 68 70 69 69 70 69 71 69 67 63 65 64 63 61 60 57 58 58 54 54 50 51 54 56 55 57 55 57 57 58 56 56 54
66 66 68 69 69 69 71 72 72 70 69 70 70 67 69 69 70 69 67 65 64 63 60 60 59 58 55 55 57 53 48 47 49 52 53 53 53 52 53 55 56 56 55
69 69 70 71 72 72 72 72 70 70 68 68 68 69 69 69 69 68 68 65 64 63 61 60 62 60 57 54 55 61 55 52 46 45 50 51 52 54 51 51 52 54 54
72 71 71 72 74 72 71 71 69 69 68 68 67 68 68 66 66 65 65 63 62 61 62 59 60 59 58 53 56 56 55 51 50 46 42 47 50 51 52 50 51 51 54
73 72 71 72 74 74 72 71 69 65 68 65 64 63 64 62 63 63 65 61 61 61 59 58 58 58 54 53 54 54 54 52 48 47 44 45 46 50 53 51 49 50 50
MSLP
1007.72 1008.29 1009.69 1010.38 1010.61 1011.02 1011.37 1011.91 1012.55 1013.14 1013.74 1014.23 1014.70 1015.19 1015.68 1016.14 1016.53 1016.78 1017.20 1017.50 1017.71 1018.05 1018.34 1018.61 1018.89 1019.14 1019.41 1019.47 1019.73 1019.90 1020.02 1020.11 1020.06 1020.26 1020.46 1020.46 1020.49 1020.59 1020.65 1020.67 1020.80 1020.85 1020.84
1008.80 1008.89 1009.06 1010.17 1011.46 1011.69 1011.87 1012.36 1012.85 1013.43 1013.94 1014.49 1015.06 1015.52 1015.98 1016.44 1016.83 1017.28 1017.54 1017.86 1018.26 1018.44 1018.86 1019.04 1019.35 1019.66 1019.93 1020.12 1020.19 1020.22 1020.41 1020.50 1020.39 1020.14 1020.52 1020.97 1021.11 1021.28 1021.32 1021.43 1021.45 1021.44 1021.46
1010.65 1010.06 1010.30 1010.70 1011.25 1011.94 1012.46 1012.78 1013.18 1013.67 1014.21 1014.74 1015.30 1015.94 1016.37 1016.75 1017.17 1017.57 1017.87 1018.28 1018.55 1019.02 1019.54 1019.62 1019.68 1020.15 1020.38 1020.44 1020.47 1020.43 1020.67 1020.79 1020.66 1020.70 1020.69 1021.32 1021.71 1021.88 1022.01 1022.05 1021.95 1021.88 1022.10
1010.19 1010.69 1011.02 1011.09 1012.03 1012.35 1012.96 1013.36 1013.75 1014.10 1014.55 1015.09 1015.53 1016.18 1016.67 1017.13 1017.50 1017.94 1018.27 1018.72 1018.95 1019.20 1019.71 1020.12 1020.36 1020.55 1020.78 1020.82 1020.81 1020.68 1020.75 1020.91 1020.79 1020.90 1021.20 1021.76 1022.16 1022.35 1022.26 1022.43 1022.49 1022.27 1022.47
1009.82 1010.53 1011.16 1011.42 1012.32 1012.64 1013.28 1013.83 1014.33 1014.74 1015.00 1015.31 1016.06 1016.56 1016.91 1017.48 1017.90 1018.25 1018.63 1019.09 1019.32 1019.67 1020.03 1020.60 1020.76 1021.13 1021.12 1021.12 1021.23 1021.00 1020.92 1020.82 1021.01 1021.31 1022.14 1022.38 1022.72 1022.81 1022.98 1022.85 1023.00 1023.01 1022.99
1010.62 1010.49 1011.49 1011.57 1012.17 1013.09 1013.78 1014.26 1014.58 1015.20 1015.50 1015.70 1016.44 1016.93 1017.42 1017.72 1018.13 1018.52 1019.00 1019.37 1019.70 1020.05 1020.39 1021.08 1021.28 1021.50 1021.46 1021.41 1021.48 1021.32 1021.10 1020.99 1021.12 1021.69 1022.61 1023.07 1023.38 1023.33 1023.33 1023.42 1023.47 1023.63 1023.70
1010.23 1010.16 1011.24 1012.12 1012.37 1012.84 1013.25 1014.75 1015.19 1015.62 1016.05 1016.27 1016.88 1017.26 1017.77 1018.09 1018.46 1018.89 1019.33 1019.64 1020.00 1020.43 1020.91 1021.46 1021.64 1021.75 1021.87 1021.68 1021.51 1021.37 1021.00 1020.90 1021.12 1022.10 1023.00 1023.52 1023.64 1023.71 1023.84 1023.79 1023.91 1023.97 1024.16
1010.89 1011.23 1012.09 1012.05 1013.43 1013.07 1014.19 1014.82 1015.52 1016.21 1016.28 1016.97 1017.29 1017.69 1018.15 1018.60 1018.88 1019.40 1019.71 1020.13 1020.66 1020.92 1021.32 1021.65 1022.05 1022.13 1022.11 1022.07 1021.83 1021.76 1021.68 1021.50 1021.49 1022.20 1023.18 1023.78 1023.94 1023.90 1024.13 1024.33 1024.48 1024.58 1024.49
1011.35 1012.34 1012.83 1012.99 1013.75 1014.16 1014.57 1015.80 1016.18 1016.34 1016.76 1017.41 1017.96 1018.42 1018.65 1019.09 1019.40 1019.77 1020.17 1020.64 1021.15 1021.29 1021.66 1021.98 1022.20 1022.31 1022.43 1022.27 1022.05 1022.19 1022.05 1022.02 1022.13 1022.37 1023.01 1023.90 1024.15 1024.29 1024.47 1024.56 1024.89 1025.00 1025.13
1012.16 1012.49 1013.37 1014.43 1013.92 1015.30 1015.62 1016.27 1016.84 1016.81 1017.10 1017.90 1018.48 1019.06 1019.27 1019.53 1019.85 1020.20 1020.59 1021.11 1021.48 1021.65 1021.98 1022.19 1022.43 1022.61 1022.77 1022.60 1022.49 1022.69 1022.46 1022.30 1022.22 1022.85 1023.56 1024.19 1024.42 1024.61 1024.83 1024.96 1025.06 1025.37 1025.52
1013.10 1013.55 1013.15 1014.57 1015.24 1015.61 1016.71 1016.59 1016.83 1017.16 1017.46 1018.43 1018.78 1019.30 1019.54 1019.84 1020.15 1020.40 1021.14 1021.54 1021.89 1021.93 1022.26 1022.46 1022.47 1022.60 1022.61 1022.63 1022.63 1022.88 1022.70 1022.34 1022.64 1023.46 1024.06 1024.37 1024.59 1024.89 1025.24 1025.41 1025.56 1025.68 1025.85
1013.96 1014.57 1014.69 1015.17 1015.97 1016.18 1016.60 1016.95 1017.00 1016.85 1017.74 1018.69 1018.94 1019.20 1019.62 1019.96 1020.54 1021.13 1021.71 1021.85 1022.20 1022.47 1022.51 1022.57 1022.53 1022.77 1022.95 1022.97 1022.78 1022.91 1022.92 1022.76 1023.12 1023.93 1024.36 1024.61 1024.83 1024.91 1025.25 1025.50 1025.70 1025.99 1026.23
1014.77 1014.91 1015.37 1015.75 1016.19 1016.53 1016.77 1017.19 1017.14 1017.74 1017.97 1018.28 1019.29 1019.21 1019.51 1020.33 1020.79 1021.49 1021.94 1022.27 1022.62 1022.79 1022.54 1022.65 1023.01 1023.11 1022.94 1022.81 1023.14 1023.22 1023.32 1023.30 1023.49 1023.94 1024.43 1024.54 1024.78 1024.87 1025.18 1025.52 1025.86 1026.12 1026.42
1015.55 1015.92 1016.04 1016.29 1016.46 1016.93 1017.02 1017.13 1017.58 1017.96 1018.08 1019.02 1019.08 1019.46 1019.87 1020.55 1020.98 1021.56 1021.95 1022.22 1022.33 1022.58 1022.60 1022.49 1022.81 1022.91 1023.04 1023.20 1023.21 1023.60 1023.60 1023.73 1023.84 1024.43 1024.65 1024.63 1024.97 1024.97 1025.13 1025.36 1025.72 1026.19 1026.60
1015.92 1016.34 1016.69 1016.80 1016.89 1017.13 1017.47 1017.85 1018.15 1018.37 1019.25 1018.99 1019.21 1019.77 1020.06 1020.49 1020.92 1021.48 1021.70 1021.89 1021.95 1022.14 1022.25 1022.52 1022.84 1023.05 1023.24 1023.46 1023.55 1023.63 1023.68 1023.90 1023.99 1024.38 1024.67 1024.86 1025.12 1025.22 1025.18 1025.34 1025.56 1025.98 1026.60
1016.33 1016.77 1017.01 1017.26 1017.32 1017.72 1018.42 1018.44 1019.13 1019.36 1019.92 1019.45 1019.34 1019.99 1020.28 1020.62 1020.91 1021.15 1021.26 1021.44 1021.67 1021.88 1022.09 1022.37 1022.78 1023.03 1023.28 1023.35 1023.72 1023.98 1023.99 1024.10 1024.41 1024.51 1024.92 1025.04 1025.13 1025.32 1025.23 1025.16 1025.69 1025.82 1026.46
1016.75 1017.17 1017.50 1017.92 1018.48 1018.59 1019.30 1019.37 1019.98 1019.71 1020.05 1019.85 1020.16 1020.64 1020.70 1020.49 1020.66 1020.85 1021.07 1021.32 1021.52 1021.79 1022.02 1022.37 1022.59 1022.79 1023.24 1023.34 1023.68 1024.10 1024.36 1024.16 1024.59 1024.69 1024.57 1025.04 1025.52 1025.32 1025.52 1025.51 1025.65 1025.91 1026.36
1017.03 1017.54 1017.80 1017.95 1018.48 1019.27 1019.85 1019.84 1019.98 1020.42 1020.68 1020.53 1020.32 1020.17 1020.18 1020.19 1020.52 1020.80 1021.03 1021.24 1021.39 1021.79 1022.19 1022.69 1022.93 1023.05 1023.22 1023.42 1023.74 1024.11 1024.27 1024.13 1024.68 1024.72 1024.55 1024.87 1025.54 1025.78 1025.85 1026.01 1025.87 1026.17 1026.51
1016.80 1017.22 1017.81 1018.44 1018.38 1018.96 1019.72 1020.20 1020.41 1020.23 1019.86 1019.71 1019.79 1019.71 1019.77 1020.17 1020.46 1020.59 1020.81 1021.15 1021.37 1021.99 1022.18 1022.54 1022.81 1022.78 1023.14 1023.50 1023.83 1023.92 1024.02 1024.30 1024.59 1024.41 1024.66 1024.82 1025.05 1025.49 1026.19 1026.45 1026.22 1026.45 1026.76
1016.28 1016.82 1017.38 1018.21 1018.71 1018.84 1019.33 1019.78 1019.28 1018.68 1019.06 1019.24 1019.11 1019.30 1019.63 1019.87 1020.00 1020.46 1020.83 1020.91 1021.39 1021.90 1022.20 1022.40 1022.76 1022.76 1023.24 1023.53 1023.69 1023.55 1023.96 1024.20 1024.41 1024.57 1024.58 1024.62 1024.95 1025.23 1025.95 1026.36 1026.45 1026.58 1026.71
1015.59 1016.35 1016.86 1017.80 1018.40 1018.73 1018.76 1018.38 1018.24 1018.43 1018.58 1018.70 1018.87 1019.12 1019.32 1019.55 1019.84 1020.38 1020.51 1020.80 1021.45 1021.79 1021.91 1022.32 1022.61 1023.07 1023.47 1023.68 1024.08 1023.89 1023.75 1024.05 1024.42 1024.41 1024.40 1024.74 1024.77 1025.05 1025.69 1025.87 1026.03 1026.37 1026.72
1014.90 1015.65 1016.08 1016.57 1016.99 1017.34 1017.61 1017.78 1017.77 1017.84 1018.04 1018.36 1018.60 1018.82 1018.97 1019.41 1019.56 1020.02 1020.47 1020.93 1021.19 1021.51 1021.69 1022.18 1022.44 1023.28 1023.37 1023.49 1024.09 1024.10 1024.06 1024.65 1024.42 1024.28 1024.25 1024.45 1024.71 1024.83 1025.29 1025.52 1025.73 1025.98 1026.37
1014.20 1014.97 1015.39 1015.80 1016.21 1016.56 1016.76 1016.82 1016.82 1017.20 1017.48 1017.84 1018.10 1018.44 1018.73 1018.91 1019.31 1019.44 1019.99 1020.27 1020.73 1021.16 1021.56 1021.89 1022.30 1022.93 1023.25 1023.44 1023.73 1024.12 1024.18 1024.35 1024.17 1024.02 1024.18 1024.39 1024.69 1024.94 1025.29 1025.36 1025.44 1025.65 1026.01
1013.01 1013.96 1014.48 1014.82 1015.08 1015.41 1015.70 1015.83 1016.01 1016.45 1016.74 1016.77 1017.17 1017.79 1018.13 1018.29 1018.81 1019.10 1019.49 1020.06 1020.38 1020.98 1021.30 1021.62 1022.02 1022.56 1023.05 1023.37 1023.69 1023.69 1024.03 1024.48 1024.74 1025.01 1024.53 1024.35 1024.55 1024.75 1024.99 1025.10 1025.24 1025.37 1025.66
1011.66 1012.39 1013.07 1013.61 1013.83 1014.46 1015.07 1015.28 1015.49 1015.77 1016.05 1016.41 1016.72 1017.16 1017.64 1017.98 1018.37 1019.14 1019.41 1019.90 1020.33 1020.57 1020.77 1021.24 1021.81 1022.30 1022.88 1023.35 1023.52 1023.60 1023.90 1024.09 1024.47 1025.10 1025.30 1024.71 1024.74 1024.50 1024.42 1024.56 1024.64 1024.93 1025.24
1010.16 1011.16 1011.95 1012.43 1012.72 1013.33 1014.08 1014.76 1015.21 1015.68 1015.72 1015.96 1016.93 1017.48 1017.41 1017.94 1018.54 1018.89 1019.35 1019.88 1020.23 1020.68 1020.94 1021.39 1021.57 1022.15 1022.87 1023.31 1023.27 1023.49 1023.40 1023.73 1024.18 1024.37 1024.92 1024.72 1024.60 1024.37 1024.16 1024.08 1024.27 1024.46 1024.72
Wind_Speed
16 19 20 20 21 21 22 22 21 20 19 20 20 20 19 18 18 18 18 17 19 21 22 22 21 21 21 20 18 17 16 17 22 24 22 24 24 24 24 24 21 19 22
6 15 23 25 20 21 22 22 21 20 20 20 20 20 19 18 18 18 18 17 19 21 22 22 21 21 19 16 13 12 12 12 17 24 24 24 23 22 23 22 19 18 21
6 11 18 22 23 22 22 22 21 21 21 21 21 19 19 18 18 17 17 17 18 20 21 21 21 19 17 12 8 8 8 7 2 4 22 12 13 20 20 20 19 22 21
15 12 16 21 21 21 21 21 20 21 21 21 21 20 18 17 17 16 16 16 18 20 21 20 19 18 13 8 7 9 9 7 9 9 12 13 13 20 20 20 20 21 21
15 13 14 23 22 21 20 20 19 20 20 21 20 19 19 18 18 17 16 16 18 19 21 19 18 15 11 8 8 10 11 12 11 19 13 11 9 16 19 20 19 20 21
4 17 15 19 23 21 17 18 19 19 19 21 19 19 19 19 19 17 17 18 18 19 20 18 17 14 9 8 9 9 11 10 2 16 12 13 9 17 18 18 19 20 20
14 15 13 10 21 24 22 18 18 18 18 19 19 20 18 19 19 17 17 18 19 18 18 17 15 12 9 8 10 12 14 17 16 14 12 9 9 17 17 18 18 17 18
11 11 10 17 17 22 20 19 18 17 18 16 18 19 18 18 18 17 17 17 17 18 16 15 13 11 10 9 9 10 10 12 13 15 13 7 13 16 16 16 16 17 18
7 10 10 8 14 16 17 16 16 18 17 16 17 17 17 17 17 18 17 17 17 17 16 14 13 12 10 8 8 10 12 12 6 9 13 6 13 14 14 15 15 15 17
11 15 13 6 10 11 11 16 15 19 20 17 17 16 15 16 17 17 17 16 16 16 15 14 13 12 9 6 4 6 9 12 5 12 9 6 12 12 12 13 14 14 15
10 11 15 13 11 12 11 14 17 19 20 16 16 16 11 8 11 11 13 13 13 14 13 12 12 11 9 7 5 2 7 4 7 8 5 10 10 11 11 11 12 12 13
7 9 10 10 11 13 11 13 12 14 10 8 9 8 5 7 8 10 10 13 11 10 10 10 10 9 7 3 1 2 4 5 8 8 5 10 8 10 10 10 11 11 11
6 11 9 12 6 5 8 7 6 5 7 6 5 7 8 7 7 5 4 4 4 6 4 4 4 3 2 5 5 5 5 5 5 5 6 10 6 8 9 10 10 10 11
11 8 10 9 9 6 4 4 5 5 4 4 5 7 7 4 6 5 4 5 4 4 5 4 3 5 5 5 5 5 5 5 3 4 5 11 7 5 9 10 10 10 10
12 12 10 10 11 10 9 7 7 7 5 4 6 5 4 4 5 5 4 5 4 4 4 5 5 4 4 6 5 5 4 4 5 4 3 9 8 3 5 10 11 11 9
12 13 13 13 12 12 8 10 5 5 3 1 4 3 1 2 4 4 5 4 4 4 3 5 4 4 3 5 5 4 4 5 4 4 4 4 8 6 1 10 11 11 10
11 14 13 14 11 13 12 6 1 3 2 2 2 7 8 5 5 4 3 3 4 3 4 5 3 3 4 3 5 3 3 3 4 3 3 4 5 9 9 7 10 9 9
13 13 14 13 14 11 9 7 7 2 5 8 6 5 6 4 6 3 3 3 4 4 3 3 4 4 3 3 3 2 2 3 3 1 1 4 4 5 8 12 11 10 8
16 15 13 12 16 18 16 15 16 16 7 5 6 6 7 6 5 3 3 4 5 4 3 4 3 3 3 1 4 3 2 1 5 2 3 3 2 4 5 8 11 11 10
17 15 16 14 16 16 12 11 13 7 8 6 5 5 7 5 6 6 5 6 4 4 4 2 3 1 1 2 3 3 4 4 3 3 3 2 4 3 5 6 5 5 10
18 17 18 19 19 14 12 6 4 4 4 3 4 7 7 5 6 6 4 6 5 5 6 5 3 5 2 2 2 5 4 6 4 3 4 4 5 6 3 2 1 4 4
17 18 17 17 15 10 7 7 5 6 5 7 4 6 5 7 8 7 6 5 6 4 5 5 4 3 4 4 1 2 3 1 3 5 3 5 4 3 1 6 5 0 4
21 20 18 18 17 14 15 10 7 7 7 7 9 8 9 7 8 7 7 5 6 4 5 5 4 4 4 3 5 2 2 2 1 3 5 3 5 4 3 4 5 5 4
20 21 21 19 17 14 14 10 12 9 9 6 5 6 8 9 8 6 7 6 5 4 6 5 5 4 1 2 2 3 3 2 2 4 1 4 4 5 6 4 4 3 5
19 20 20 21 20 18 15 13 8 9 7 4 4 5 6 6 7 5 5 6 5 4 4 8 6 5 3 2 2 1 3 3 4 4 4 3 2 4 5 6 6 5 5
22 19 18 18 18 18 19 17 10 7 7 8 6 3 3 4 4 5 5 5 4 4 4 3 4 6 3 1 1 3 2 2 2 2 3 4 3 3 3 5 5 5 4
Wind_Direction
125 128 129 127 127 126 124 123 122 120 118 114 110 106 103 102 101 101 101 98 103 99 95 91 88 85 84 87 89 90 93 97 97 86 70 65 61 57 54 49 55 56 56
119 131 133 132 130 128 125 124 123 123 121 116 113 111 111 108 106 104 103 102 100 101 99 97 93 91 89 93 94 94 89 100 108 100 83 68 64 63 64 61 59 59 57
268 117 132 132 133 132 129 127 127 127 123 119 116 114 113 111 108 106 107 108 108 103 102 100 97 94 91 84 71 78 90 100 139 343 89 80 71 72 65 62 70 65 62
153 154 143 127 129 127 127 128 128 127 123 121 119 119 114 112 107 108 110 114 114 110 107 101 99 96 96 77 42 30 28 27 5 68 66 75 70 60 71 69 62 69 68
137 140 148 134 132 124 128 129 130 127 125 121 123 120 117 113 112 112 117 122 119 112 110 108 103 102 92 65 40 24 4 3 4 75 57 63 70 65 67 66 67 66 67
37 135 124 131 125 124 131 131 130 128 125 122 124 120 116 113 109 109 115 120 120 116 112 110 108 104 82 55 29 10 356 348 104 88 80 70 64 71 71 71 68 66 67
128 123 122 124 130 139 139 131 126 123 121 121 122 116 115 110 107 106 111 114 115 115 115 115 107 96 82 54 26 9 2 357 100 94 88 76 73 69 69 72 72 73 73
122 130 126 125 138 129 133 127 123 121 116 117 116 115 112 110 106 104 104 109 113 114 114 110 104 93 82 54 28 15 360 352 89 100 95 86 78 77 75 75 74 74 76
111 147 122 117 129 115 105 112 116 116 106 107 103 105 107 103 102 103 103 111 117 116 114 112 106 98 85 70 26 3 0 341 330 106 98 90 84 81 81 81 80 79 80
83 83 65 48 73 86 97 104 109 110 98 100 102 101 101 102 103 102 104 111 119 118 117 112 108 102 92 75 33 348 345 318 47 79 87 94 90 85 87 87 88 88 87
109 137 138 133 132 140 137 113 115 107 103 116 118 124 127 125 118 108 98 104 111 114 117 121 126 128 133 158 203 307 316 6 54 84 82 97 102 98 96 96 96 95 94
87 110 108 115 147 145 142 132 125 118 126 130 135 140 98 96 98 92 96 99 103 110 122 138 148 138 167 195 163 314 26 345 81 90 80 75 116 114 114 112 110 106 101
75 103 90 111 90 102 129 139 131 135 135 116 140 87 92 94 101 106 115 112 122 143 141 167 141 187 140 53 54 46 14 6 62 87 98 85 96 134 131 130 129 119 116
91 77 99 107 100 96 84 92 130 115 97 124 123 93 108 118 116 127 151 156 177 191 177 184 124 83 78 78 74 73 58 27 31 112 117 102 86 121 157 147 141 132 131
101 86 78 90 92 88 70 66 69 81 124 113 83 93 100 126 134 167 175 176 188 170 186 99 116 145 119 78 54 54 51 102 352 89 107 118 108 88 176 164 153 144 145
98 104 101 78 77 78 83 78 69 51 58 55 89 80 186 208 175 190 162 186 163 151 179 146 157 165 150 125 101 63 47 22 54 29 140 107 110 95 124 179 167 154 153
114 117 110 108 106 98 92 94 44 125 109 77 143 207 213 207 171 157 169 168 157 187 127 85 125 106 109 111 114 111 162 166 58 12 57 131 108 90 89 140 156 156 162
129 128 132 128 127 117 123 98 72 287 211 195 221 202 202 232 169 213 189 158 147 109 121 150 197 188 128 106 99 178 123 116 91 276 35 75 136 109 79 101 110 110 117
143 151 140 143 142 139 148 165 185 206 188 197 209 201 173 214 168 176 208 185 132 157 177 174 217 160 120 155 172 168 150 245 160 172 101 95 56 121 125 126 127 134 142
151 166 154 156 160 168 173 191 203 172 188 200 230 148 197 211 184 173 237 129 143 190 167 186 154 50 133 163 279 162 172 184 199 174 168 171 139 69 128 158 156 172 172
161 171 168 176 188 195 204 195 191 189 198 214 144 243 173 203 168 179 227 144 179 206 175 179 147 143 239 124 353 270 204 181 178 207 176 191 174 150 226 80 174 136 170
164 173 180 182 184 190 193 198 197 187 196 206 194 194 203 199 191 186 224 177 178 217 163 158 155 179 215 157 203 312 288 174 220 214 199 187 183 157 145 196 202 21 156
171 182 189 185 192 195 197 205 192 187 197 192 198 198 202 193 216 188 201 172 175 222 156 164 179 225 199 174 175 174 316 300 148 172 206 191 172 159 203 266 184 180 196
180 184 194 201 203 197 206 220 190 202 197 184 189 175 195 181 195 207 185 184 185 181 163 172 181 206 206 228 161 184 218 90 354 338 236 206 198 174 195 216 237 195 192
190 187 193 200 205 190 198 217 209 198 184 181 178 183 172 169 154 241 152 176 181 192 194 168 175 175 159 169 216 142 192 184 184 188 277 306 233 213 213 190 191 185 207
189 193 193 204 209 190 194 212 207 190 197 176 179 214 182 163 162 192 213 191 197 209 177 191 147 141 187 119 102 248 217 168 247 203 235 248 240 266 212 188 164 163 192